This is the latest recevied weather packets stored in our database for station/object KB3GVC-13. If no packets are shown the sender has not sent any weather packets the latest 10 day(s).
| Time | Temp. | Humidity | Pressure | Rain* | Wind** | Luminosity | Snow |
|---|---|---|---|---|---|---|---|
| 1777492900 | 15° C | 63% | 1011.9 hPa | 0 mm | - | - | - |
| 1777492596 | 14.44° C | 64% | 1011.9 hPa | 0 mm | - | - | - |
| 1777492291 | 14.44° C | 63% | 1012 hPa | 0 mm | - | - | - |
| 1777491989 | 14.44° C | 62% | 1012.2 hPa | 0 mm | - | - | - |
| 1777491685 | 14.44° C | 62% | 1012.3 hPa | 0 mm | - | - | - |
| 1777491383 | 15° C | 61% | 1012.2 hPa | 0 mm | - | - | - |
| 1777491080 | 15° C | 62% | 1012.5 hPa | 0 mm | - | - | - |
| 1777490775 | 15° C | 62% | 1012.8 hPa | 0 mm | - | - | - |
| 1777490472 | 15° C | 63% | 1013 hPa | 0 mm | - | - | - |
| 1777490168 | 15° C | 63% | 1013 hPa | 0 mm | - | - | - |
| 1777489866 | 15° C | 65% | 1013.3 hPa | 0 mm | - | - | - |
| 1777489564 | 15° C | 65% | 1013.5 hPa | 0 mm | - | - | - |
| 1777489260 | 15° C | 67% | 1013.5 hPa | 0 mm | - | - | - |
| 1777488957 | 14.44° C | 70% | 1013.4 hPa | 0 mm | - | - | - |
| 1777488654 | 14.44° C | 67% | 1013.6 hPa | 0 mm | - | - | - |
| 1777488352 | 14.44° C | 66% | 1013.7 hPa | 0 mm | - | - | - |
| 1777488050 | 15° C | 65% | 1013.6 hPa | 0 mm | - | - | - |
| 1777487747 | 15° C | 65% | 1013.6 hPa | 0 mm | - | - | - |
| 1777487445 | 15° C | 66% | 1013.5 hPa | 0 mm | - | - | - |
| 1777487142 | 15° C | 65% | 1013.7 hPa | 0 mm | - | - | - |
| 1777486838 | 15° C | 66% | 1013.9 hPa | 0 mm | - | - | - |
| 1777486535 | 14.44° C | 67% | 1013.7 hPa | 0 mm | - | - | - |
| 1777486233 | 14.44° C | 67% | 1013.9 hPa | 0 mm | - | - | - |
| 1777485930 | 14.44° C | 67% | 1014 hPa | 0 mm | - | - | - |
| 1777485626 | 14.44° C | 67% | 1014.2 hPa | 0 mm | - | - | - |
* Rain latest hour (hover to see other rain measurements)
** Current wind speed in m/s (hover to see current wind gust speed)